Regional Weather Roundup
Issued by NWS San Angelo, TX

Home | Current Version | Previous Version | Text Only | Print | Product List | Glossary On
Versions: 1 2 3 4 5 6 7 8 9 10 11 12 13 14 15 16 17 18 19 20 21 22 23 24 25 26 27 28 29 30 31 32 33 34 35 36 37 38 39 40 41 42 43 44 45 46 47 48 49 50
000
ASUS44 KSJT 251802
RWRSJT
WEST CENTRAL TEXAS REGIONAL WEATHER ROUNDUP
NATIONAL WEATHER SERVICE SAN ANGELO TX
100 PM CDT MON MAY 25 2015

NOTE: "FAIR" INDICATES FEW OR NO CLOUDS BELOW 12,000 FEET WITH NO
SIGNIFICANT WEATHER AND/OR OBSTRUCTIONS TO VISIBILITY.

TXZ049-054-064>066-071>073-076>078-098-099-113-114-127-128-139-140-
154-155-168>170-251900
...LOCATIONS ACROSS WEST CENTRAL TEXAS...

CITY           SKY/WX    TMP DP  RH WIND       PRES   REMARKS
SAN ANGELO     CLOUDY    66  59  78 E6        29.91R
ABILENE        LGT RAIN  60  59  96 NE7       29.88F
DYESS AFB      NOT AVBL
JUNCTION       PTSUNNY   80  69  69 SW15G28   29.87F
SWEETWATER     CLOUDY    64  55  72 NW14G23   29.94F
BROWNWOOD      NOT AVBL
COLEMAN        NOT AVBL
SONORA         NOT AVBL
OZONA          NOT AVBL
BRADY          NOT AVBL
$$

TEXAS PANHANDLE/OKLAHOMA PANHANDLE

CITY           SKY/WX    TMP DP  RH WIND       PRES   REMARKS
AMARILLO       CLOUDY    64  47  53 S21G30    29.93R
BORGER         CLOUDY    70  45  40 S17G28    29.90R
CANADIAN       CLOUDY    72  52  49 SW16G25   29.87R
DALHART        CLOUDY    70  45  40 S8        29.91R
DUMAS          CLOUDY    68  51  54 S13       29.91R
GUYMON         NOT AVBL
HEREFORD       NOT AVBL
PAMPA          NOT AVBL
PERRYTON       NOT AVBL
$$

SOUTHERN PANHANDLE/SOUTH PLAINS/ROLLING PLAINS

CITY           SKY/WX    TMP DP  RH WIND       PRES   REMARKS
LUBBOCK        CLOUDY    63  50  62 E17G26    29.92R
SNYDER         NOT AVBL
CHILDRESS      RAIN      58  55  90 W14       29.98F FOG
SEMINOLE       NOT AVBL
$$

PERMIAN BASIN

CITY           SKY/WX    TMP DP  RH WIND       PRES   REMARKS
MIDLAND        SUNNY     73  53  49 VRB6      29.94R
ODESSA         SUNNY     74  49  41 N7        29.95S
WINK           SUNNY     79  48  33 E8        29.91F
$$

FAR WEST/SOUTHWEST MOUNTAINS/TRANS PECOS

CITY           SKY/WX    TMP DP  RH WIND       PRES   REMARKS
ALPINE         NOT AVBL
DRYDEN           N/A     93  19   7 SW16G28   29.87S
EL PASO        MOSUNNY   76  31  19 W15G21    29.97S
FORT STOCKTON  SUNNY     83  28  13 NW14G23   29.93S
GUADALUPE PASS SUNNY     73  33  23 SW26G38   30.03F
MARFA          SUNNY     73  27  17 SW22G30   30.07S
PECOS          NOT AVBL
$$

DALLAS/FORT WORTH METROPLEX

CITY           SKY/WX    TMP DP  RH WIND       PRES   REMARKS
DFW AIRPORT    HVY RAIN  73  71  93 SE12G21   29.87F FOG
FTW MEACHAM    CLOUDY    77  70  79 SE14G22   29.85F
DAL-EXECUTIVE  CLOUDY    75  70  84 SE14G23   29.89S
GRAND PRAIRIE  PTSUNNY   75  72  88 SE12G23   29.89F
ADDISON        CLOUDY    77  72  83 SE15G24   29.90F
MESQUITE       MOCLDY    79  72  78 SE18G25   29.91F
LANCASTER      CLOUDY    77  69  76 SE14      29.91F
$$

NORTH CENTRAL TEXAS

CITY           SKY/WX    TMP DP  RH WIND       PRES   REMARKS
SHRMAN/DENISON CLOUDY    77  72  83 SE13      29.92R
GAINESVILLE    CLOUDY    78  69  75 SE20      29.89F
BRIDGEPORT     LGT RAIN  76  70  81 SE10G25   29.86F
DENTON         LGT RAIN  77  70  79 S17       29.86F
WAXAHACHIE     CLOUDY    75  73  92 SE13G20   29.90F
GRANBURY       NOT AVBL
$$

WESTERN NORTH TEXAS

CITY           SKY/WX    TMP DP  RH WIND       PRES   REMARKS
WICHITA FALLS  CLOUDY    72  68  87 SE5       29.89S
VERNON         NOT AVBL
BRECKENRIDGE   NOT AVBL
COMANCHE       CLOUDY    71  63  77 NW16G25   29.90R
$$

CENTRAL AND SOUTH CENTRAL TEXAS

CITY           SKY/WX    TMP DP  RH WIND       PRES   REMARKS
AUSTIN/BERGSTM PTSUNNY   82  73  74 SE16G26   29.84F
WACO           TSTM      74  71  91 S14       29.93R
HILLSBORO      NOT AVBL
TEMPLE         CLOUDY    73  68  83 E9        29.87F
KILLEEN-GRAY   CLOUDY    72  72 100 E16       29.84F
FORT HOOD      CLOUDY    72  72 100 SE14      29.85F FOG
GEORGETOWN     PTSUNNY   77  73  88 VRB6      29.84F
LAGO VISTA     CLOUDY    76  72  86 SE6G16    29.85F
SAN MARCOS     CLOUDY    82  72  69 SE23G30   29.84F
NEW BRAUNFELS  CLOUDY    83  73  72 S24G33    29.82F
RANDOLPH AFB   LGT RAIN  81  73  78 S18G33    29.83F
SAN ANTONIO    CLOUDY    80  72  76 S16G24    29.85F
STINSON        CLOUDY    81  73  76 S14G26    29.83F
PLEASANTON     NOT AVBL
LA GRANGE      NOT AVBL
GIDDINGS       HVY RAIN  77  73  86 S7        29.92F
$$

EAST TEXAS

CITY           SKY/WX    TMP DP  RH WIND       PRES   REMARKS
PARIS          PTSUNNY   79  70  73 S14       29.95F
CLARKSVILLE    NOT AVBL
TYLER          CLOUDY    83  70  64 S15G21    29.96S
LONGVIEW       PTSUNNY   83  71  67 S10       29.96F
PALESTINE      CLOUDY    81  72  74 SE8       29.96S
NACOGDOCHES    PTSUNNY   82  72  69 S9G16     29.97F
$$

TEXAS HILL COUNTRY AND EDWARDS PLATEAU

CITY           SKY/WX    TMP DP  RH WIND       PRES   REMARKS
LLANO          NOT AVBL
HORSESHOE BAY  TSTM      73  72  95 SE5       29.85F
KERRVILLE      TSTM      72  70  93 S12G21    29.88S
FREDERICKSBRG  NOT AVBL
ROCKSPRINGS    NOT AVBL
HONDO          MOSUNNY   79  75  87 S17G26    29.86F
UVALDE         CLOUDY    79  74  83 S14       29.87S
DEL RIO        NOT AVBL
$$

SOUTHEAST TEXAS

CITY           SKY/WX    TMP DP  RH WIND       PRES   REMARKS
COLLEGE STN    CLOUDY    84  73  69 SE17G26   29.90F
CALDWELL       NOT AVBL
CROCKETT       NOT AVBL
BRENHAM        PTSUNNY   86  73  65 SE15G25   29.90F
HUNTSVILLE     PTSUNNY   85  71  63 SE10G18   29.92F
CONROE         PTSUNNY   84  71  65 SE14G23   29.94F
HOUSTON BUSH   PTSUNNY   86  72  62 SE21G29   29.94F
HOUSTON HOBBY  MOSUNNY   85  73  67 SE18G29   29.94F
PERLAND        MOSUNNY   87  74  64 S17G26    29.96F
WHARTON        NOT AVBL
$$

THE UPPER TEXAS COAST

CITY           SKY/WX    TMP DP  RH WIND       PRES   REMARKS
ORANGE         PTCLDY    85  71  62 SE15G21   30.02S
PORT ARTHUR    PTSUNNY   84  75  74 SE16G23   29.99S
GALVESTON      PTSUNNY   84  79  85 SE17      29.98F
ANGLETON       CLOUDY    81  75  82 S18G24    29.95F
BAY CITY       NOT AVBL
$$

TEXAS COASTAL BEND, RIO GRANDE PLAINS DEEP SOUTH TEXAS

CITY           SKY/WX    TMP DP  RH WIND       PRES   REMARKS
VICTORIA       CLOUDY    82  75  79 SE26      29.90F
BEEVILLE       MOCLDY    85  79  83 SE15G25   29.87F
ROCKPORT       CLOUDY    83  76  79 SE21G29   29.88F
PORT ARANSAS   CLOUDY    83  78  82 SE20      29.89F
PORT LAVACA    CLOUDY    82  75  78 SE21G26   29.92S
CORPUS CHRISTI PTSUNNY   84  75  74 SE25G35   29.87F
KINGSVILLE NAS PTSUNNY   85  78  80 SE22G30   29.86S
COTULLA        PTSUNNY   82  74  76 S12       29.84F
LAREDO         MOSUNNY   87  74  65 S17       29.84F
BROWNSVILLE    PTSUNNY   88  77  69 SE28G35   29.86F
PORT ISABEL    MOSUNNY   86  77  74 SE24G35   29.85F
HEBBRONVILLE   NOT AVBL
MCALLEN        PTSUNNY   91  77  63 SE16G26   29.84F
WESLACO        NOT AVBL
FALFURRIAS     MOCLDY    88  75  66 SE15      29.84F
EDINBURG       NOT AVBL
$$


USA.gov is the U.S. government's official web portal to all federal, state and local government web resources and services.